Flag Weather past 2 weeks in Alexandria, Virginia, U.S.A.

Now
44 °F

Partly sunny.


Feels Like: 43 °F
Forecast: 35 / 55 °F
Wind: 3 mph from Southwest

Location: Reagan National Airport

Current Time: Nov 23, 2014 at 10:02:25 AM

Latest Report: Nov 23, 2014 at 8:52 AM


Visibility: 10 mi

Pressure: 30.24 "Hg

Humidity: 49%

Dew point: 26 °F

Location of AlexandriaLocation

Historic Weather in Alexandria — Graph

°F

Alexandria temperature yesterday

Maximum temperature yesterday: 52 °F (at 2:52 PM)
Minimum temperature yesterday: 27 °F (at 4:52 AM)
Average temperature yesterday: 39 °F

Past Weeks' High & Low Weather Summary

 TemperatureHumidityPressure
High71 °F (Nov 11, 2:52 PM)90% (Nov 12, 5:52 AM)30.57 "Hg (Nov 12, 5:52 AM)
Low22 °F (Nov 19, 4:52 AM)23% (Nov 18, 2:52 PM)29.57 "Hg (Nov 17, 3:00 PM)
Average44 °F50%30.14 "Hg
* Reported Nov 8 8:52 AM — Nov 23 8:52 AM, Alexandria, Weather by CustomWeather, © 2014

Note: Actual official high and low records may vary slightly from our data, if they occured in-between our weather recording intervals... More about our weather records

Advertising

Alexandria weather history for previous 24 hours

 ConditionsComfort  
Time TempWeatherWind HumidityBarometerVisibility
8:52 AM
Nov 23
44 °FPartly sunny.3 mph49%30.24 "Hg10 mi
7:52 AM41 °FScattered clouds.5 mph47%30.24 "Hg10 mi
6:52 AM41 °FPartly cloudy.5 mph45%30.24 "Hg10 mi
5:52 AM40 °FPassing clouds.6 mph45%30.23 "Hg10 mi
4:52 AM41 °FPassing clouds.5 mph41%30.22 "Hg10 mi
3:52 AM43 °FPassing clouds.8 mph38%30.22 "Hg10 mi
2:52 AM44 °FPassing clouds.10 mph35%30.23 "Hg10 mi
1:52 AM45 °FOvercast.12 mph34%30.25 "Hg10 mi
12:52 AM44 °FPassing clouds.8 mph37%30.24 "Hg10 mi
11:52 PM
Nov 22
46 °FOvercast.6 mph34%30.27 "Hg10 mi
10:52 PM46 °FOvercast.8 mph37%30.27 "Hg10 mi
9:52 PM44 °FOvercast.8 mph43%30.29 "Hg10 mi
8:52 PM44 °FPassing clouds.9 mph45%30.29 "Hg10 mi
7:52 PM42 °FClear.8 mph53%30.30 "Hg10 mi
6:52 PM45 °FClear.9 mph34%30.31 "Hg10 mi
5:52 PM45 °FPassing clouds.9 mph42%30.31 "Hg10 mi
4:52 PM49 °FPartly cloudy.9 mph27%30.32 "Hg10 mi
3:52 PM51 °FScattered clouds.16 mph25%30.33 "Hg10 mi
2:52 PM52 °FPartly sunny.15 mph24%30.35 "Hg10 mi
1:52 PM50 °FPartly sunny.13 mph24%30.37 "Hg10 mi
12:52 PM48 °FPartly sunny.14 mph27%30.41 "Hg10 mi
11:52 AM46 °FScattered clouds.15 mph29%30.45 "Hg10 mi
10:52 AM42 °FScattered clouds.10 mph36%30.48 "Hg10 mi
Weather by CustomWeather, © 2014

See weather overviewHow to use our weather pages